Location: Munkebjergskolens Observatorium
(55.3864°N, 10.3987°E)
Time: 03:45:49
(UTC+02:00)

QB50P2 - Pass Details

Date: 03 April 2023
Orbit: 581 x 596 km, 98.0° (Epoch: 31 May)

Event Time Altitude Azimuth Distance (km) Brightness Sun altitude
Rises 02:02:12 0° 26° (NNE) 2,839 ? -28.9°
Reaches altitude 10° 02:05:01 10° 46° (NE) 1,927 ? -28.8°
Enters shadow 02:07:19 17° 79° (E) 1,511 ? -28.8°
